Regional Weather Roundup
Issued by NWS Northern Indiana

Home | Current Version | Previous Version | Graphics & Text | Print | Product List | Glossary On
Versions: 1 2 3 4 5 6 7 8 9 10 11 12 13 14 15 16 17 18 19 20 21 22 23 24 25 26 27 28 29 30 31 32 33 34 35 36 37 38 39 40 41 42 43 44 45 46 47 48 49 50
000
ASUS43 KIWX 201300
RWRIWX

KIWX WEATHER ROUNDUP
NATIONAL WEATHER SERVICE NORTHERN INDIANA
900 AM EDT SUN APR 20 2014

NOTE: "FAIR" INDICATES FEW OR NO CLOUDS BELOW 12,000 FEET WITH NO
SIGNIFICANT WEATHER AND/OR OBSTRUCTIONS TO VISIBILITY.

* THESE STATIONS ARE NOT UNDER NWS QUALITY CONTROL. THEY ALSO MAY NOT
  REPORT WEATHER SUCH AS PRECIPITATION OR FOG.

INZ001>027-201400-
NORTHERN INDIANA

CITY           SKY/WX    TMP DP  RH WIND       PRES   REMARKS
GARY*          MOSUNNY   50  28  43 S9        30.25S
VALPARAISO     MOSUNNY   45  30  55 S7        30.27R
LAPORTE*       MOSUNNY   44  30  57 SE8       30.26F
SOUTH BEND     MOSUNNY   47  30  51 SE8       30.28R
GOSHEN         MOSUNNY   46  33  60 SE10      30.27F
MONTICELLO*    MOSUNNY   46  32  58 SE3       30.26S
ANGOLA*        SUNNY     45  34  65 SE9       30.28F
FORT WAYNE     PTSUNNY   43  33  68 E6        30.30S
PERU/GRISSOM   SUNNY     47  35  64 E8        30.26S

$$
INZ028>050-201400-
CENTRAL INDIANA

CITY           SKY/WX    TMP DP  RH WIND       PRES   REMARKS
LAFAYETTE      MOSUNNY   48  33  56 SE3       30.26S
KOKOMO*        SUNNY     46  34  61 SE8       30.27S
MUNCIE*        SUNNY     50  32  50 SE8       30.27S
INDIANAPOLIS   PTSUNNY   50  34  54 SE7       30.27R

$$
MIZ043>046-050>051-056>058-064>065-071>073-077>080-201400-
SOUTHWEST LOWER MICHIGAN

CITY           SKY/WX    TMP DP  RH WIND       PRES   REMARKS
BATTLE CREEK   MOSUNNY   46  30  53 S8        30.28R
BENTON HARBOR  MOSUNNY   47  31  53 SE15G21   30.24S
COLDWATER*     MOSUNNY   46  31  56 S10       30.27F
HILLSDALE*     SUNNY     47  32  57 S7        30.28S
HOLLAND        MOSUNNY   49  30  48 SE5       30.26R
GRAND RAPIDS   PTSUNNY   48  29  47 S6        30.27R
KALAMAZOO      MOSUNNY   46  32  58 S9        30.28R
STURGIS*       MOSUNNY   46  34  61 S8        30.27S
THREE RIVERS*  FAIR      46  32  58 S3        30.29R

$$
OHZ001>008-015>018-024>025-201400-
NORTHWEST OHIO

CITY           SKY/WX    TMP DP  RH WIND       PRES   REMARKS
DEFIANCE       SUNNY     43  35  73 NE6       30.31S
FINDLAY        SUNNY     48  34  58 SE6       30.29R
TOLEDO EXPRESS SUNNY     45  37  73 VRB5      30.31S
TOLEDO METCALF SUNNY     46  38  73 E3        30.32S
LIMA           SUNNY     50  34  54 SE7       30.29R

$$
&&



USA.gov is the U.S. government's official web portal to all federal, state and local government web resources and services.